Weather History for Chester, SC

Change the Weather History Date:

Saturday, February 2, 2013

  Actual Average (KUZA) Record (KUZA)
Temperature  
Mean Temperature 36 °F -  
Max Temperature 50 °F 55 °F 80 °F (1989)
Min Temperature 23 °F 35 °F 12 °F (1979)
Degree Days  
Heating Degree Days 28    
Moisture  
Dew Point 19 °F    
Average Humidity 53    
Maximum Humidity 100    
Minimum Humidity 24    
Precipitation  
Precipitation 0.00 in - - ()
Sea Level Pressure  
Sea Level Pressure 30.25 in    
Wind  
Wind Speed 5 mph (South)    
Max Wind Speed 13 mph    
Max Gust Speed 23 mph    
Visibility 10 miles    
Events Rain    
Averages and records for this station are not official NWS values.
T = Trace of Precipitation, MM = Missing Value Source: NWS Daily Summary

Daily Weather History Graph

Daily Weather History Graph

Search for Another Location

Airport:

Trip Planner

Search our weather history database for the weather conditions in past years. The results will help you decide how hot, cold, wet, or windy it might be!

Date:

Astronomy

Feb. 02, 2013 Rise Set
Actual Time 7:22 AM EST 5:55 PM EST
Civil Twilight 6:55 AM EST 6:21 PM EST
Nautical Twilight 6:25 AM EST 6:51 PM EST
Astronomical Twilight 5:55 AM EST 7:21 PM EST
Moon No Moon Rise 10:50 AM EST (2/2)
Length of Visible Light 11h 25m
Length of Day
10h 33m
Waning Gibbous, 60% of the Moon is Illuminated
Feb 2
Waning Gibbous
Feb 3
Last Quarter
Feb 10
New
Feb 17
First Quarter
Feb 25
Full

Hourly Weather History & Observations

Time (EST) Temp. Windchill Dew Point Humidity Pressure Visibility Wind Dir Wind Speed Gust Speed Precip Events Conditions
12:15 AM 28.4 °F 23.3 °F 14.0 °F 55% 30.37 in 10.0 mi NNE 4.6 mph - N/A   Clear
12:35 AM 28.4 °F 22.2 °F 12.2 °F 51% 30.37 in 10.0 mi NE 5.8 mph - N/A   Clear
12:55 AM 28.4 °F 21.2 °F 12.2 °F 51% 30.36 in 10.0 mi NE 6.9 mph - N/A   Clear
1:15 AM 28.4 °F 23.3 °F 14.0 °F 55% 30.37 in 10.0 mi NE 4.6 mph - N/A   Clear
1:35 AM 26.6 °F 21.2 °F 14.0 °F 59% 30.37 in 10.0 mi NNE 4.6 mph - N/A   Clear
1:55 AM 26.6 °F - 14.0 °F 59% 30.37 in 10.0 mi Calm Calm - N/A   Clear
2:15 AM 28.4 °F 24.6 °F 14.0 °F 55% 30.36 in 10.0 mi ENE 3.5 mph - N/A   Clear
2:35 AM 28.4 °F 24.6 °F 14.0 °F 55% 30.37 in 10.0 mi East 3.5 mph - N/A   Clear
3:15 AM 28.4 °F - 14.0 °F 55% 30.38 in 10.0 mi Calm Calm - N/A   Clear
3:35 AM 24.8 °F 20.5 °F 15.8 °F 69% 30.36 in 10.0 mi East 3.5 mph - N/A   Clear
4:15 AM 26.6 °F - 14.0 °F 59% 30.36 in 10.0 mi Calm Calm - N/A   Clear
4:35 AM 26.6 °F - 14.0 °F 59% 30.36 in 10.0 mi Calm Calm - N/A   Clear
4:55 AM 26.6 °F 22.6 °F 14.0 °F 59% 30.35 in 10.0 mi East 3.5 mph - N/A   Clear
5:15 AM 26.6 °F 22.6 °F 14.0 °F 59% 30.35 in 10.0 mi East 3.5 mph - N/A   Clear
5:35 AM 26.6 °F 21.2 °F 14.0 °F 59% 30.35 in 10.0 mi ESE 4.6 mph - N/A   Clear
5:55 AM 26.6 °F 21.2 °F 12.2 °F 55% 30.35 in 10.0 mi ESE 4.6 mph - N/A   Clear
6:15 AM 26.6 °F 22.6 °F 12.2 °F 55% 30.37 in 10.0 mi ESE 3.5 mph - N/A   Clear
6:35 AM 26.6 °F - 12.2 °F 55% 30.37 in 10.0 mi Calm Calm - N/A   Clear
7:15 AM 23.0 °F - 14.0 °F 68% 30.37 in 10.0 mi Calm Calm - N/A   Clear
7:35 AM 24.8 °F - 14.0 °F 64% 30.39 in 10.0 mi Calm Calm - N/A   Clear
7:55 AM 24.8 °F - 14.0 °F 64% 30.39 in 10.0 mi Calm Calm - N/A   Clear
8:15 AM 26.6 °F - 15.8 °F 64% 30.39 in 10.0 mi Calm Calm - N/A   Clear
8:35 AM 28.4 °F - 15.8 °F 59% 30.38 in 10.0 mi Calm Calm - N/A   Clear
8:55 AM 30.2 °F 24.3 °F 14.0 °F 51% 30.38 in 10.0 mi ESE 5.8 mph - N/A   Clear
9:15 AM 32.0 °F 25.6 °F 14.0 °F 48% 30.38 in 10.0 mi SE 6.9 mph - N/A   Clear
9:35 AM 32.0 °F 25.6 °F 12.2 °F 44% 30.37 in 10.0 mi East 6.9 mph - N/A   Clear
9:55 AM 33.8 °F 27.7 °F 10.4 °F 38% 30.37 in 10.0 mi East 6.9 mph - N/A   Clear
10:35 AM 35.6 °F 28.6 °F 10.4 °F 35% 30.35 in 10.0 mi SE 9.2 mph - N/A   Clear
10:55 AM 35.6 °F 30.7 °F 10.4 °F 35% 30.34 in 10.0 mi SSE 5.8 mph - N/A   Clear
11:35 AM 39.2 °F 33.0 °F 12.2 °F 33% 30.30 in 10.0 mi SE 9.2 mph - N/A   Clear
11:55 AM 41.0 °F 37.1 °F 12.2 °F 31% 30.29 in 10.0 mi SSW 5.8 mph - N/A   Clear
12:15 PM 42.8 °F 38.6 °F 12.2 °F 29% 30.27 in 10.0 mi SW 6.9 mph - N/A   Clear
12:35 PM 42.8 °F 40.1 °F 12.2 °F 29% 30.26 in 10.0 mi SW 4.6 mph - N/A   Clear
12:55 PM 44.6 °F 40.2 °F 12.2 °F 27% 30.24 in 10.0 mi South 8.1 mph - N/A   Clear
1:15 PM 44.6 °F 40.7 °F 12.2 °F 27% 30.22 in 10.0 mi SSW 6.9 mph - N/A   Mostly Cloudy
1:35 PM 44.6 °F 40.7 °F 12.2 °F 27% 30.22 in 10.0 mi SW 6.9 mph - N/A   Overcast
1:55 PM 46.4 °F 42.4 °F 12.2 °F 25% 30.21 in 10.0 mi SSW 8.1 mph - N/A   Mostly Cloudy
2:15 PM 46.4 °F 44.3 °F 12.2 °F 25% 30.20 in 10.0 mi SW 4.6 mph - N/A   Scattered Clouds
2:35 PM 48.2 °F - 12.2 °F 24% 30.19 in 10.0 mi SW 8.1 mph - N/A   Clear
2:55 PM 48.2 °F - 14.0 °F 25% 30.18 in 10.0 mi SSW 5.8 mph - N/A   Clear
3:15 PM 48.2 °F - 14.0 °F 25% 30.17 in 10.0 mi WSW 6.9 mph - N/A   Clear
3:55 PM 48.2 °F - 15.8 °F 27% 30.15 in 10.0 mi SSW 9.2 mph - N/A   Clear
4:15 PM 48.2 °F - 15.8 °F 27% 30.14 in 10.0 mi South 6.9 mph - N/A   Scattered Clouds
4:35 PM 50.0 °F - 17.6 °F 28% 30.13 in 10.0 mi South 4.6 mph - N/A   Clear
4:55 PM 48.2 °F - 17.6 °F 30% 30.13 in 10.0 mi SSW 5.8 mph - N/A   Scattered Clouds
5:15 PM 48.2 °F - 17.6 °F 30% 30.13 in 10.0 mi SSW 3.5 mph - N/A   Mostly Cloudy
5:35 PM 46.4 °F 43.5 °F 19.4 °F 34% 30.11 in 10.0 mi SSW 5.8 mph - N/A   Overcast
5:55 PM 46.4 °F 41.9 °F 21.2 °F 37% 30.09 in 10.0 mi South 9.2 mph 16.1 mph N/A   Mostly Cloudy
6:35 PM 46.4 °F 42.9 °F 23.0 °F 40% 30.09 in 10.0 mi SSW 6.9 mph - N/A   Overcast
7:15 PM 46.4 °F 41.1 °F 23.0 °F 40% 30.10 in 10.0 mi SW 11.5 mph 18.4 mph N/A   Light Drizzle
7:35 PM 46.4 °F 40.7 °F 26.6 °F 46% 30.11 in 10.0 mi SW 12.7 mph 17.3 mph N/A   Overcast
7:55 PM 44.6 °F 39.2 °F 32.0 °F 61% 30.12 in 10.0 mi WSW 10.4 mph 23.0 mph N/A   Drizzle
8:15 PM 42.8 °F 37.0 °F 33.8 °F 70% 30.14 in 10.0 mi SW 10.4 mph - N/A Rain Light Rain
8:35 PM 41.0 °F 35.2 °F 37.4 °F 87% 30.13 in 10.0 mi SW 9.2 mph 17.3 mph N/A Rain Light Rain
8:55 PM 39.2 °F 35.0 °F 37.4 °F 93% 30.12 in 10.0 mi SW 5.8 mph - N/A   Light Drizzle
9:15 PM 39.2 °F 34.2 °F 37.4 °F 93% 30.12 in 10.0 mi SW 6.9 mph - N/A   Mostly Cloudy
9:35 PM 39.2 °F 33.6 °F 37.4 °F 93% 30.11 in 10.0 mi SW 8.1 mph - N/A   Scattered Clouds
9:55 PM 39.2 °F 35.0 °F 37.4 °F 93% 30.11 in 10.0 mi SW 5.8 mph - N/A   Mostly Cloudy
10:15 PM 39.2 °F 35.0 °F 37.4 °F 93% 30.11 in 10.0 mi WSW 5.8 mph - N/A   Overcast
10:35 PM 39.2 °F 35.0 °F 37.4 °F 93% 30.10 in 10.0 mi SW 5.8 mph - N/A   Overcast
10:55 PM 37.4 °F 32.8 °F 37.4 °F 100% 30.09 in 10.0 mi WSW 5.8 mph - N/A   Scattered Clouds
11:15 PM 37.4 °F 32.8 °F 37.4 °F 100% 30.07 in 10.0 mi SW 5.8 mph - N/A   Scattered Clouds
11:35 PM 37.4 °F 32.8 °F 37.4 °F 100% 30.06 in 10.0 mi SW 5.8 mph - N/A   Scattered Clouds